User: anonymous   Login
Location: Enborne
(51.3833°N, 1.3667°W)
Time: 22:47:59
(UTC+00:00)
Language:

MetOp-A - Orbit

View from above orbital plane
View from above orbital plane
View from above satellite
View from above satellite

Ground track
Ground track

The orbit data is extracted from the following two-line orbital elements,

1 29499U 06044A   21210.58020910 -.00000003  00000-0  17641-4 0  9995
2 29499  98.4690 248.1618 0001545 113.7382  39.6775 14.21505565766720
Epoch (UTC): 29 July 2021 13:55:30
Eccentricity: 0.0001545
inclination: 98.4690°
perigee height: 819 km
apogee height: 821 km
right ascension of ascending node: 248.1618°
argument of perigee: 113.7382°
revolutions per day: 14.21505565
mean anomaly at epoch: 39.6775°
orbit number at epoch: 76672

The dashed part of the orbit path shows where the satellite is in the earth's shadow,  

DLR